Weather Roundup
Issued by NWS Chicago, IL

Home | Current Version | Previous Version | Graphics & Text | Print | Product List | Glossary On
Versions: 1 2 3 4 5 6 7 8 9 10 11 12 13 14 15 16 17 18 19 20 21 22 23 24 25 26 27 28 29 30 31 32 33 34 35 36 37 38 39 40 41 42 43 44 45 46 47 48 49 50
000
NZUS59 KLOT 251809
HRRLOT

CHICAGO AREA WEATHER ROUNDUP
NATIONAL WEATHER SERVICE CHICAGO/ROMEOVILLE IL
100 PM CDT SUN JUN 25 2017

NOTE: "FAIR" INDICATES FEW OR NO CLOUDS BELOW 12,000 FEET WITH NO
SIGNIFICANT WEATHER AND/OR OBSTRUCTIONS TO VISIBILITY.

* THESE STATIONS ARE NOT UNDER NWS QUALITY CONTROL. THEY ALSO MAY NOT
  REPORT WEATHER SUCH AS PRECIPITATION OR FOG.

ILZ005-006-012>014-019>023-251900-
NORTHEAST ILLINOIS

CITY           SKY/WX    TMP DP  RH WIND       PRES   REMARKS
OHARE          PTSUNNY   70  46  42 W14G24    30.09F
6HR MIN TEMP:  57; 6HR MAX TEMP:  71;

MIDWAY         PTSUNNY   70  44  39 NW14G25   30.10F
6HR MIN TEMP:  59; 6HR MAX TEMP:  71;

AURORA         PTSUNNY   70  46  42 W21G28    30.12F
6HR MIN TEMP:  55; 6HR MAX TEMP:  71;

LANSING*       MOSUNNY   70  44  39 W15G24    30.12S
JOLIET*        PTSUNNY   72  44  35 W10G23    30.12F
WAUKEGAN       MOSUNNY   69  49  48 W9G21     30.07F
6HR MIN TEMP:  57; 6HR MAX TEMP:  69;

DUPAGE AIRPORT PTSUNNY   68  49  50 W12G21    30.10F
6HR MIN TEMP:  56; 6HR MAX TEMP:  69;

WHEELING       MOSUNNY   69  47  45 NW15G23   30.10F
6HR MIN TEMP:  57; 6HR MAX TEMP:  70;

MORRIS*        PTSUNNY   71  43  36 W20G25    30.12S
LEWIS AIRPORT* MOSUNNY   72  41  32 W17       30.12S
NORTHERLY ISL    N/A     68  43  40 W5          N/A
$$

WIZ051-052-058>065-066-070>072-251900-
SOUTHEAST WISCONSIN

CITY           SKY/WX    TMP DP  RH WIND       PRES   REMARKS
MILWAUKEE      PTSUNNY   69  47  45 W18       30.06S
6HR MIN TEMP:  57; 6HR MAX TEMP:  70;

KENOSHA*       MOSUNNY   67  49  52 W22       30.08S
RACINE*        MOSUNNY   71  48  43 W14G23    30.08S
WAUKESHA       PTSUNNY   64  48  55 W16G23    30.08S
WEST BEND      PTSUNNY   63  46  55 W15       30.06R
$$

INZ001>003-010>013-019-020-251900-
NORTHWEST INDIANA

CITY           SKY/WX    TMP DP  RH WIND       PRES   REMARKS
GARY*          PTSUNNY   72  39  30 W10G32    30.12S
MICHIGAN CITY* NOT AVBL
RENSSELAER*    NOT AVBL
VALPARAISO     MOSUNNY   73  44  35 W18       30.11F
$$

LMZ740>746-251900-
SOUTHERN LAKE MICHIGAN

STATION/POSITION TIME  SKY/WX   TEMP WIND        PRES    VSBY
                                AIR  DIR/SP/G
                 (UTC)          (F)  (DEG/KT/KT) (MB)    (MI)
HARRISON CRIB    1740            67  290/ 17/ 22   N/A
BURNHAM HARBOR   1800            68                N/A
CALUMET HARBOR   1748            68  260/  7/ 13 1018.8F
BURNS HARBOR     1740            66  290/ 14/ 16 1020.0S
MICHIGAN CITY    1740            65  260/ 14/ 16   N/A
$$

ABBREVIATIONS USED IN REMARKS
   TC - TEMPERATURE IN CELSIUS
  WCI - WIND CHILL INDEX
   HX - HEAT INDEX
  VSB - VISIBILITY
$$



USA.gov is the U.S. government's official web portal to all federal, state and local government web resources and services.